EW5635 Weather Reports


time (UTC)temp
C
wind
direction
speed
KPH
gust
KPH
rain 1hr
cm
rain 24hr
cm
rain mn
cm
humidity
%
barometer
mb
20260507194529 14 0.0 3.2 0.00 0.00 0.00 79 1009.3
20260507193527 13 0.0 3.2 0.00 0.00 0.00 80 1009.2
20260507192523 13 0.0 0.0 0.00 0.00 0.00 80 1009.0
20260507191541 13 10 1.6 3.2 0.00 0.00 0.00 81 1009.0
20260507190537 13 10 1.6 3.2 0.00 0.00 0.00 80 1009.0
20260507185616 14 18 1.6 3.2 0.00 0.00 0.00 77 1009.0
20260507184612 15 14 1.6 3.2 0.00 0.00 0.00 77 1009.0
20260507183630 15 7 1.6 3.2 0.00 0.00 0.00 74 1008.7
20260507182606 15 4 1.6 3.2 0.00 0.00 0.00 74 1008.6
20260507181604 16 23 0.0 3.2 0.00 0.00 0.00 73 1008.5
20260507180602 16 23 1.6 3.2 0.00 0.00 0.00 71 1008.5
20260507175559 16 23 1.6 6.4 0.00 0.00 0.00 69 1008.4
20260507174555 17 0.0 0.0 0.00 0.00 0.00 69 1008.3
20260507173554 17 0.0 0.0 0.00 0.00 0.00 67 1008.3
20260507172554 17 0.0 0.0 0.00 0.00 0.00 67 1008.3
20260507171548 18 0.0 0.0 0.00 0.00 0.00 67 1008.2
20260507170627 19 146 0.0 3.2 0.00 0.00 0.00 60 1008.3
20260507165542 19 158 1.6 3.2 0.00 0.00 0.00 58 1008.4
20260507164539 20 200 1.6 3.2 0.00 0.00 0.00 59 1008.1
20260507163557 21 184 3.2 9.7 0.00 0.00 0.00 53 1008.1
20260507162534 21 194 4.8 11.3 0.00 0.00 0.00 52 1008.1
20260507161531 21 194 4.8 11.3 0.00 0.00 0.00 51 1008.1
20260507160529 20 195 1.6 6.4 0.00 0.00 0.00 54 1008.0
20260507155527 21 186 4.8 9.7 0.00 0.00 0.00 48 1008.0
20260507154543 22 195 1.6 6.4 0.00 0.00 0.00 45 1008.1
20260507153521 22 162 1.6 9.7 0.00 0.00 0.00 46 1008.1
20260507152538 21 340 1.6 3.2 0.00 0.00 0.00 45 1008.1
20260507151615 22 351 1.6 3.2 0.00 0.00 0.00 45 1008.2
20260507150612 21 12 1.6 6.4 0.00 0.00 0.00 47 1008.3
20260507145608 21 2 1.6 6.4 0.00 0.00 0.00 48 1008.4
20260507144607 21 292 1.6 3.2 0.00 0.00 0.00 48 1008.4
20260507143603 22 283 0.0 3.2 0.00 0.00 0.00 46 1008.5
20260507142601 23 170 1.6 6.4 0.00 0.00 0.00 46 1008.4
20260507141639 22 237 1.6 3.2 0.00 0.00 0.00 47 1008.6
20260507140556 21 263 0.0 3.2 0.00 0.00 0.00 50 1008.7
20260507135554 20 38 1.6 6.4 0.00 0.00 0.00 49 1008.8
20260507134550 21 0 1.6 6.4 0.00 0.00 0.00 49 1008.9
20260507133547 21 326 3.2 6.4 0.00 0.00 0.00 50 1009.1
20260507132544 21 300 3.2 6.4 0.00 0.00 0.00 48 1009.2
20260507131542 22 269 1.6 3.2 0.00 0.00 0.00 47 1009.1
20260507130601 22 143 3.2 9.7 0.00 0.00 0.00 44 1009.2
20260507125556 22 220 1.6 3.2 0.00 0.00 0.00 47 1009.2
20260507124552 21 221 1.6 6.4 0.00 0.00 0.00 50 1009.3
20260507123530 19 23 0.0 3.2 0.00 0.00 0.00 53 1009.3
20260507122528 19 2 1.6 6.4 0.00 0.00 0.00 55 1009.4
20260507121526 22 248 0.0 3.2 0.00 0.00 0.00 52 1009.4
20260507120523 19 0.0 0.0 0.00 0.00 0.00 57 1009.5
20260507115540 18 352 0.0 3.2 0.00 0.00 0.00 58 1009.6
20260507114516 18 343 3.2 6.4 0.00 0.00 0.00 58 1009.7
20260507113614 18 6 4.8 6.4 0.00 0.00 0.00 59 1009.8
20260507112611 20 314 4.8 9.7 0.00 0.00 0.00 56 1009.9
20260507111608 18 277 1.6 6.4 0.00 0.00 0.00 61 1010.0
20260507110606 18 352 4.8 6.4 0.00 0.00 0.00 62 1010.1
20260507105603 18 355 3.2 6.4 0.00 0.00 0.00 60 1010.1
20260507104600 18 312 3.2 9.7 0.00 0.00 0.00 62 1010.2
20260507103618 18 337 4.8 9.7 0.00 0.00 0.00 63 1010.3
20260507102617 18 339 4.8 9.7 0.00 0.00 0.00 62 1010.4
20260507101613 17 7 3.2 9.7 0.00 0.03 0.00 63 1010.5
20260507100550 17 340 4.8 11.3 0.00 0.03 0.00 63 1010.5
20260507095551 17 28 3.2 6.4 0.00 0.03 0.00 64 1010.6
20260507094543 17 352 3.2 9.7 0.00 0.03 0.00 65 1010.5
20260507093541 17 11 1.6 6.4 0.00 0.03 0.00 69 1010.5
20260507092539 17 339 3.2 6.4 0.00 0.03 0.00 70 1010.6
20260507091555 16 345 1.6 6.4 0.00 0.03 0.00 73 1010.6
20260507090533 17 16 1.6 6.4 0.00 0.03 0.00 71 1010.5
20260507085530 16 320 4.8 6.4 0.00 0.03 0.00 74 1010.6
20260507084527 16 336 3.2 9.7 0.00 0.03 0.00 74 1010.6
20260507083525 16 302 3.2 6.4 0.00 0.03 0.00 75 1010.5
20260507082523 15 342 1.6 3.2 0.00 0.03 0.00 77 1010.7
20260507081521 15 1 3.2 6.4 0.00 0.03 0.00 80 1010.7
20260507080542 13 295 3.2 6.4 0.00 0.03 0.00 83 1010.8
20260507075616 13 295 1.6 6.4 0.00 0.03 0.00 84 1010.9
20260507074618 12 322 1.6 6.4 0.00 0.03 0.00 84 1010.9
20260507073628 11 326 3.2 6.4 0.00 0.03 0.00 91 1010.9
20260507072605 11 347 1.6 3.2 0.00 0.03 0.00 98 1010.9
20260507071602 10 11 0.0 3.2 0.00 0.03 0.00 98 1011.0
20260507070559 10 0.0 0.0 0.00 0.03 0.00 99 1011.0
20260507065557 9 136 1.6 3.2 0.00 0.03 0.00 99 1010.9
20260507064554 9 135 1.6 3.2 0.00 0.03 0.00 99 1010.9
20260507063551 8 125 1.6 6.4 0.00 0.03 0.00 99 1010.9
20260507062609 8 135 0.0 3.2 0.00 0.03 0.00 99 1010.9
20260507061547 8 23 0.0 3.2 0.00 0.03 0.00 99 1010.7
20260507060543 7 0.0 0.0 0.00 0.03 0.00 99 1010.7
20260507055600 7 0.0 0.0 0.00 0.03 0.00 99 1010.8
20260507054537 7 0.0 0.0 0.00 0.03 0.00 99 1010.7
20260507053535 7 68 0.0 3.2 0.00 0.03 0.00 99 1010.6
20260507052532 7 0.0 0.0 0.00 0.03 0.00 99 1010.5
20260507051549 6 0.0 3.2 0.00 0.03 0.00 99 1010.3
20260507050607 7 2 3.2 6.4 0.00 0.03 0.00 99 1010.4
20260507045544 7 19 3.2 3.2 0.00 0.03 0.00 99 1010.3
20260507044521 7 9 1.6 3.2 0.00 0.03 0.00 99 1010.3
20260507043518 6 0.0 3.2 0.00 0.03 0.00 99 1010.2
20260507042515 6 7 0.0 3.2 0.00 0.03 0.00 98 1010.1
20260507041613 6 23 1.6 3.2 0.00 0.03 0.00 98 1010.0
20260507040631 7 0 1.6 3.2 0.00 0.03 0.00 98 1009.9
20260507035608 7 0 0.0 3.2 0.00 0.03 0.00 98 1010.0
20260507034605 7 0.0 0.0 0.00 0.03 0.00 98 1010.0
20260507033623 7 0.0 3.2 0.00 0.03 0.00 98 1010.0
20260507032600 7 16 1.6 3.2 0.00 0.03 0.00 98 1009.9
20260507031557 8 10 1.6 3.2 0.00 0.03 0.00 98 1009.9
20260507030555 7 4 1.6 3.2 0.00 0.03 0.00 98 1009.9
20260507025551 8 30 0.0 3.2 0.00 0.03 0.00 98 1009.9
20260507024551 7 18 1.6 3.2 0.00 0.03 0.00 97 1009.9
20260507023545 7 11 1.6 3.2 0.00 0.03 0.00 97 1009.9
20260507022542 8 18 1.6 6.4 0.00 0.03 0.00 97 1010.0
20260507021541 8 23 1.6 3.2 0.00 0.03 0.00 97 1010.0
20260507020536 8 23 0.0 3.2 0.00 0.03 0.00 97 1010.0
20260507015532 8 9 1.6 3.2 0.00 0.03 0.00 97 1009.9
20260507014531 8 16 3.2 6.4 0.00 0.03 0.00 96 1009.8
20260507013528 8 357 3.2 6.4 0.00 0.03 0.00 96 1009.7
20260507012546 9 4 1.6 3.2 0.00 0.03 0.00 96 1009.7
20260507011522 10 15 1.6 3.2 0.00 0.03 0.00 96 1009.6
20260507010519 10 21 1.6 3.2 0.00 0.03 0.00 95 1009.6
20260507005516 9 23 0.0 3.2 0.00 0.03 0.00 95 1009.7
20260507004635 10 0.0 0.0 0.00 0.03 0.00 94 1009.6
20260507003612 10 0 0.0 3.2 0.00 0.05 0.00 95 1009.8
20260507002608 10 0.0 3.2 0.00 0.05 0.00 95 1009.8
20260507001605 10 13 1.6 3.2 0.00 0.13 0.00 95 1009.7
20260507000603 10 0.0 0.0 0.00 0.15 0.00 95 1009.7
20260506235600 10 0.0 0.0 0.00 0.18 0.00 95 1009.8
20260506234557 10 0.0 3.2 0.00 0.18 0.00 94 1009.9
20260506233555 10 23 0.0 3.2 0.00 0.20 0.00 94 1009.7
20260506232552 10 0 0.0 3.2 0.00 0.28 0.00 94 1009.8
20260506231549 10 0 1.6 3.2 0.00 0.33 0.00 93 1009.8
20260506230546 10 23 0.0 3.2 0.00 0.33 0.00 94 1009.8
20260506225543 10 0 1.6 3.2 0.00 0.36 0.00 94 1009.9
20260506224548 10 0.0 3.2 0.00 0.36 0.00 94 1009.9
20260506223538 10 0.0 3.2 0.00 0.36 0.00 93 1009.9
20260506222536 10 0.0 3.2 0.00 0.38 0.00 92 1009.7
20260506221532 11 23 0.0 3.2 0.00 0.38 0.00 92 1009.7
20260506220531 11 14 1.6 3.2 0.00 0.38 0.00 91 1009.5
20260506215526 11 0.0 0.0 0.00 0.38 0.38 91 1009.6
20260506214524 11 85 0.0 3.2 0.00 0.43 0.38 91 1009.4
20260506213521 11 8 1.6 3.2 0.00 0.43 0.38 91 1009.2
20260506212519 11 23 0.0 3.2 0.00 0.43 0.38 90 1009.3
20260506211515 11 19 1.6 3.2 0.00 0.43 0.38 89 1009.1
20260506210613 11 341 1.6 3.2 0.00 0.43 0.38 88 1009.0
20260506205610 11 7 3.2 6.4 0.00 0.43 0.38 87 1009.1
20260506204627 12 0 1.6 3.2 0.00 0.43 0.38 86 1008.9
20260506203605 12 347 4.8 9.7 0.00 0.46 0.38 85 1008.8
20260506202602 12 286 3.2 9.7 0.00 0.48 0.38 80 1008.7
20260506201559 12 0.0 3.2 0.00 0.51 0.38 78 1008.4
20260506200556 13 4 1.6 3.2 0.00 0.51 0.38 75 1008.5
20260506195613 13 354 4.8 9.7 0.00 0.51 0.38 73 1008.3